sat.trackr.live / text

‹ back to catalog

2025-313AL

NORAD 67282 · 2025-313AL

PAYLOAD ACTIVE UNKNOWN

§ Identity

Operator
Country
TBD
Launch date
2025-12-28
Launch site
VOSTO
Launch vehicle
Mass (kg)
RCS (m²)

External: N2YO · Heavens-Above · Gunter

§ Orbital elements

Epoch: 2026-05-25T03:40:36.283008Z

Period
94.56 min
Inclination
97.3931°
Eccentricity
0.0012226
Mean motion
15.22763961 rev/d
Perigee alt
489.1 km
Apogee alt
505.9 km
Semi-major
6,875.6 km
B*
2.2544e-4
RAAN
220.2423°
Arg perigee
83.2976°
Mean anomaly
276.9651°
Rev number
2,245

§ Raw data

2025-313AL1 67282U 25313AL  26145.15319772  .00005204  00000+0  22544-3 0  99922 67282  97.3931 220.2423 0012226  83.2976 276.9651 15.22763961 22453

JSON: /api/v1/satellites/67282 · /tle

For live sub-satellite position, see the globe view (requires WebGL).

§ Visibility from observer

Set your observer location to see the next 7 days of passes ≥ 10°. The values pass through the URL so the page stays shareable.

No JS? Fill the form by hand. The geolocation button needs JavaScript.